{"data":{"norad_id":68905,"epoch":"2026-05-25T01:21:52.333344Z","epoch_age_seconds":63436,"freshness":"FRESH","line1":"1 68905U 26097L   26145.05685571  .00024424  00000+0  44898-3 0  9998","line2":"2 68905  97.2862 340.7842 0001253  79.8000 280.3392 15.49212381  3935","mean_motion":15.49212381,"eccentricity":0.0001253,"inclination_deg":97.2862,"raan_deg":340.7842,"arg_perigee_deg":79.8,"mean_anomaly_deg":280.3392,"bstar":0.00044898,"rev_number":393,"period_min":92.950457772,"perigee_km":418.17719314523,"apogee_km":419.88056291427,"semimajor_km":6797.1658780297,"source":"CELESTRAK","updated_at":"2026-05-25T13:38:22.068374Z"}}